SL-12 R/B(2), 23429

Orbit data source: Space-Track

SL-12 R/B(2), 23429 is space debris in GEO originally from a launch on Fri, 16 Dec 1994 UTC launched from the Tyuratam Missile And Space Complex (TTMTR). Debris objects in space refer to the collection of defunct objects orbiting the Earth. Examples of debris include non-operational satellites, rocket bodies, and fragments generated from explosions, collisions, or faulty payload assembly.

Loading next visibility...
SL-12 R/B(2) details
Identifier
23429, 1994-082D
Orbit
GEO
Last TLE update1 day ago
Origin
Flag of CISRVSN RF (CIS)
ManufacturerRKKE
MissionSpacecraft
Bus & MotorBLOK DM, Unknown motor
Mass2,440 kg wet, 2,440 kg dry
Launch date (UTC)
1994-12-16 (30 years ago)
Launch vehicleUnknown
Launch site
Tyuratam Missile And Space Complex (TTMTR)
Object type
Payload
Rocket body
Debris
Shape & HBRCyl, 6.27 m
Radar Cross Section23.597 m², Large (>1 m²)

Expand to show TLE details & history

TLE from 1 day ago
0 SL-12 R/B(2)
1 23429U 94082D   24325.13042278 -.00000159  00000-0  00000-0 0  9992
2 23429  14.6350 358.5777 0029433 129.0459 228.7521  1.00801848110104
Epoch: 2024-11-20T03:07Z
Definitive object data (Epoch: 2024-11-20T03:07:48.528Z)
Latitude-0.61694°
Longitude-110.39199°
Altitude35,719.455 km
Speed3.074 km/s
True Right ascension23h 44m 45s
True Declination0° 36' 59"
Sunlit
Object was in daylight at TLE epoch
Visualization TLE readout
Latitude11.79029°
Longitude-55.06934°
Altitude35,605.376 km
Speed3.083 km/s
Apparent Right ascension03h 23m 48s
Apparent Declination7° 04' 55"
Sunlit
Object is in daylight
Visualization observer readout
Local Sidereal Time03:42:37
Azimuth188.564° SSW
Elevation56.896°
Doppler factor1
Orbital elements
Apogee altitude35,763.295 km
Perigee altitude35,515.953 km
Semi-major axis42,017.761 km
Eccentricity0.0029433
Inclination14.635°
RAAN358.5777°
Arg. of periapsis129.0459°
True anomaly228.49913°
Mean anomaly228.7521°
Eccentric anomaly228.62555°
Mean motion0.252 °/min
BSTARUnknown
Orbital period1428.59 mins
Loading historical data...
23429 neighbors
Authenticating...
Loading maneuver chart data...
Loading historical data...
Loading historical data...
Loading historical data...
Loading historical data...
Loading historical data...
Loading historical data...
Loading historical data...

SL-12 R/B(2) Visibility forecast

Observer location: undefined°, undefined

Span
Click to sort rows by Start time (UTC) header in descending order
Start Az.
Max El. time (UTC)
Max El. Az.
Max El.
End time (UTC)
End Az.
1440 mins2024-11-21 06:40:02.685Z188.559° SSW2024-11-21 09:09:02.685Z186.472° SSW40.974°2024-11-22 06:40:02.685Z184.617° SSW
|